Meteo pe oră la Bolshie Lipyagi

Astăzi, 19 Mai, Miercuri

Timp Temperatura Precipitaţii Vânt Presiune Umiditate
00:00 +17°C° 0 mm 2 m/s 745 mmHg 76%
01:00 +17°C° 0 mm 2 m/s 745 mmHg 77%
02:00 +17°C° 0 mm 2 m/s 745 mmHg 79%
03:00 +17°C° 0 mm 3 m/s 745 mmHg 80%
04:00 +17°C° 0 mm 2 m/s 745 mmHg 82%
05:00 +17°C° 0 mm 2 m/s 745 mmHg 83%
06:00 +19°C° 0 mm 1 m/s 745 mmHg 84%
07:00 +20°C° 0 mm 1 m/s 745 mmHg 79%
08:00 +21°C° 0 mm 1 m/s 745 mmHg 73%
09:00 +22°C° 0 mm 1 m/s 745 mmHg 68%
10:00 +24°C° 0 mm 2 m/s 745 mmHg 62%
11:00 +25°C° 0 mm 3 m/s 745 mmHg 57%
12:00 +27°C° 0 mm 4 m/s 744 mmHg 51%
13:00 +27°C° 0 mm 5 m/s 744 mmHg 49%
14:00 +28°C° 0 mm 5 m/s 744 mmHg 48%
15:00 +29°C° 0 mm 5 m/s 744 mmHg 46%
16:00 +28°C° 0 mm 4 m/s 744 mmHg 52%
17:00 +27°C° 0 mm 3 m/s 743 mmHg 58%
18:00 +26°C° 0 mm 2 m/s 743 mmHg 64%
19:00 +24°C° 0 mm 2 m/s 743 mmHg 68%
20:00 +23°C° 0 mm 2 m/s 744 mmHg 71%
21:00 +20°C° 0 mm 3 m/s 744 mmHg 75%
22:00 +19°C° 0.2 mm 3 m/s 744 mmHg 79%
23:00 +17°C° 0.2 mm 3 m/s 744 mmHg 83%

Mâine, 20 Mai, Joi

Timp Temperatura Precipitaţii Vânt Presiune Umiditate
00:00 +16°C° 0.2 mm 3 m/s 744 mmHg 87%
01:00 +16°C° 0.3 mm 3 m/s 745 mmHg 89%
02:00 +14°C° 0.3 mm 3 m/s 745 mmHg 91%
03:00 +14°C° 0.3 mm 3 m/s 745 mmHg 92%
04:00 +14°C° 0 mm 3 m/s 745 mmHg 91%
05:00 +14°C° 0 mm 3 m/s 745 mmHg 90%
06:00 +13°C° 0 mm 4 m/s 745 mmHg 88%
07:00 +14°C° 0 mm 4 m/s 745 mmHg 83%
08:00 +15°C° 0 mm 5 m/s 746 mmHg 78%
09:00 +16°C° 0 mm 6 m/s 746 mmHg 73%
10:00 +17°C° 0 mm 6 m/s 746 mmHg 70%
11:00 +17°C° 0 mm 6 m/s 746 mmHg 67%
12:00 +19°C° 0 mm 5 m/s 746 mmHg 65%
13:00 +19°C° 0.1 mm 5 m/s 746 mmHg 65%
14:00 +19°C° 0.1 mm 5 m/s 746 mmHg 65%
15:00 +20°C° 0.1 mm 5 m/s 746 mmHg 65%
16:00 +19°C° 0.4 mm 5 m/s 746 mmHg 69%
17:00 +19°C° 0.4 mm 4 m/s 746 mmHg 73%
18:00 +19°C° 0.4 mm 4 m/s 746 mmHg 76%
19:00 +17°C° 0.1 mm 4 m/s 746 mmHg 82%
20:00 +16°C° 0.1 mm 3 m/s 746 mmHg 87%
21:00 +14°C° 0.1 mm 3 m/s 746 mmHg 93%
22:00 +13°C° 0 mm 3 m/s 746 mmHg 94%
23:00 +13°C° 0 mm 3 m/s 747 mmHg 95%

Poimâine, 21 Mai, Vineri

Timp Temperatura Precipitaţii Vânt Presiune Umiditate
00:00 +12°C° 0 mm 3 m/s 747 mmHg 96%
01:00 +12°C° 0 mm 3 m/s 747 mmHg 95%
02:00 +12°C° 0 mm 3 m/s 747 mmHg 95%
03:00 +12°C° 0 mm 2 m/s 747 mmHg 95%
04:00 +12°C° 0 mm 3 m/s 747 mmHg 94%
05:00 +12°C° 0 mm 3 m/s 747 mmHg 93%
06:00 +13°C° 0 mm 3 m/s 748 mmHg 92%
07:00 +14°C° 0 mm 4 m/s 748 mmHg 87%
08:00 +15°C° 0 mm 4 m/s 748 mmHg 82%
09:00 +16°C° 0 mm 5 m/s 748 mmHg 78%
10:00 +17°C° 0.1 mm 5 m/s 749 mmHg 72%
11:00 +17°C° 0.1 mm 5 m/s 749 mmHg 67%
12:00 +19°C° 0.1 mm 5 m/s 749 mmHg 61%
13:00 +20°C° 0 mm 5 m/s 749 mmHg 60%
14:00 +20°C° 0 mm 4 m/s 749 mmHg 60%
15:00 +20°C° 0 mm 4 m/s 749 mmHg 59%
16:00 +20°C° 0 mm 4 m/s 749 mmHg 62%
17:00 +20°C° 0 mm 3 m/s 749 mmHg 66%
18:00 +19°C° 0 mm 3 m/s 750 mmHg 69%
19:00 +18°C° 0 mm 2 m/s 750 mmHg 73%
20:00 +16°C° 0 mm 2 m/s 750 mmHg 76%
21:00 +15°C° 0 mm 1 m/s 751 mmHg 80%
22:00 +15°C° 0 mm 1 m/s 751 mmHg 80%
23:00 +14°C° 0 mm 1 m/s 751 mmHg 79%

22 Mai, Sâmbătă

Timp Temperatura Precipitaţii Vânt Presiune Umiditate
00:00 +14°C° 0 mm 1 m/s 751 mmHg 79%
01:00 +14°C° 0 mm 1 m/s 751 mmHg 80%
02:00 +14°C° 0 mm 2 m/s 751 mmHg 80%
03:00 +14°C° 0 mm 2 m/s 751 mmHg 81%
04:00 +14°C° 0.1 mm 2 m/s 751 mmHg 83%
05:00 +14°C° 0.1 mm 2 m/s 751 mmHg 85%
06:00 +14°C° 0.1 mm 2 m/s 751 mmHg 87%
07:00 +16°C° 0 mm 3 m/s 751 mmHg 83%
08:00 +17°C° 0 mm 4 m/s 751 mmHg 79%
09:00 +19°C° 0 mm 5 m/s 751 mmHg 74%
10:00 +21°C° 0 mm 5 m/s 751 mmHg 69%
11:00 +22°C° 0 mm 5 m/s 751 mmHg 64%
12:00 +24°C° 0 mm 6 m/s 750 mmHg 59%
13:00 +26°C° 0 mm 5 m/s 750 mmHg 57%
14:00 +27°C° 0 mm 5 m/s 750 mmHg 55%
15:00 +28°C° 0 mm 5 m/s 749 mmHg 52%
16:00 +27°C° 0 mm 4 m/s 749 mmHg 57%
17:00 +26°C° 0 mm 4 m/s 749 mmHg 61%
18:00 +26°C° 0 mm 3 m/s 748 mmHg 66%
19:00 +24°C° 0 mm 3 m/s 748 mmHg 70%
20:00 +22°C° 0 mm 3 m/s 748 mmHg 73%
21:00 +20°C° 0 mm 3 m/s 748 mmHg 77%
22:00 +20°C° 0 mm 4 m/s 748 mmHg 74%
23:00 +20°C° 0 mm 4 m/s 748 mmHg 71%

23 Mai, Duminică

Timp Temperatura Precipitaţii Vânt Presiune Umiditate
00:00 +20°C° 0 mm 4 m/s 748 mmHg 68%
01:00 +19°C° 0.1 mm 4 m/s 748 mmHg 67%
02:00 +19°C° 0.1 mm 4 m/s 748 mmHg 66%
03:00 +19°C° 0.1 mm 3 m/s 748 mmHg 66%
04:00 +19°C° 0 mm 3 m/s 748 mmHg 68%
05:00 +19°C° 0 mm 3 m/s 748 mmHg 70%
06:00 +19°C° 0 mm 3 m/s 748 mmHg 72%
07:00 +20°C° 0 mm 4 m/s 748 mmHg 67%
08:00 +22°C° 0 mm 5 m/s 748 mmHg 62%
09:00 +25°C° 0 mm 5 m/s 748 mmHg 57%
10:00 +26°C° 0 mm 6 m/s 748 mmHg 54%
11:00 +28°C° 0 mm 6 m/s 748 mmHg 51%
12:00 +29°C° 0 mm 7 m/s 748 mmHg 48%
13:00 +29°C° 0 mm 6 m/s 748 mmHg 49%
14:00 +30°C° 0 mm 6 m/s 748 mmHg 50%
15:00 +30°C° 0 mm 6 m/s 747 mmHg 51%
16:00 +29°C° 0 mm 5 m/s 747 mmHg 55%
17:00 +28°C° 0 mm 5 m/s 747 mmHg 59%
18:00 +27°C° 0 mm 4 m/s 747 mmHg 63%
19:00 +26°C° 0 mm 4 m/s 746 mmHg 66%
20:00 +24°C° 0 mm 3 m/s 746 mmHg 68%
21:00 +22°C° 0 mm 3 m/s 746 mmHg 71%
22:00 +22°C° 0 mm 4 m/s 745 mmHg 66%
23:00 +23°C° 0 mm 5 m/s 745 mmHg 61%

24 Mai, Luni

Timp Temperatura Precipitaţii Vânt Presiune Umiditate
00:00 +23°C° 0 mm 6 m/s 745 mmHg 56%
01:00 +22°C° 0 mm 5 m/s 744 mmHg 55%
02:00 +21°C° 0 mm 5 m/s 744 mmHg 55%
03:00 +20°C° 0 mm 4 m/s 744 mmHg 55%
04:00 +20°C° 0 mm 4 m/s 744 mmHg 58%
05:00 +19°C° 0 mm 4 m/s 744 mmHg 61%
06:00 +19°C° 0 mm 4 m/s 744 mmHg 65%
07:00 +21°C° 0 mm 4 m/s 744 mmHg 64%
08:00 +22°C° 0 mm 4 m/s 744 mmHg 63%
09:00 +25°C° 0 mm 4 m/s 744 mmHg 62%
10:00 +26°C° 0 mm 4 m/s 745 mmHg 60%
11:00 +27°C° 0 mm 4 m/s 745 mmHg 58%
12:00 +28°C° 0 mm 4 m/s 745 mmHg 56%
13:00 +29°C° 0 mm 4 m/s 746 mmHg 56%
14:00 +30°C° 0 mm 4 m/s 746 mmHg 56%
15:00 +30°C° 0 mm 4 m/s 746 mmHg 56%
16:00 +29°C° 0.1 mm 4 m/s 746 mmHg 60%
17:00 +29°C° 0.1 mm 3 m/s 746 mmHg 65%
18:00 +28°C° 0.1 mm 2 m/s 746 mmHg 69%
19:00 +26°C° 1 mm 3 m/s 746 mmHg 76%
20:00 +24°C° 1 mm 3 m/s 746 mmHg 83%
21:00 +20°C° 1 mm 4 m/s 746 mmHg 89%
22:00 +20°C° 0.6 mm 4 m/s 747 mmHg 91%
23:00 +19°C° 0.6 mm 4 m/s 747 mmHg 92%
Arată mai mult

Formular de consimțământ

Meteoprog și furnizorii noștri de servicii pot stoca și accesa date personale, precum cookies, identificatori de dispozitiv sau alte tehnologii similare pe dispozitivul dumneavoastră și procesa astfel de date pentru a personaliza conținutul și reclamele, dar și pentru a oferi caracteristici de social media și pentru a analiza traficul.

  • Stocarea și/sau accesarea informațiilor pe dispozitivul dumneavoastră

    Cookies, identificatori de dispozitiv sau alte informații pot fi stocate sau accesate pe dispozitiv în scopurile indicate mai sus.

  • Reclame și conținut personalizat, evaluarea reclamelor și a conținutului, informații despre audiențe și dezvoltarea produselor

    Reclamele și conținutul pot fi personalizate pe baza unui profil. Pot fi adăugate date suplimentare pentru a personaliza mai bine reclamele și conținutul. Performanța reclamelor și conținutului poate fi măsurată. Pot fi obținute informații despre utilizatorii care au văzut reclamele și conținutul. Aceste date pot fi utilizate pentru a dezvolta sau îmbunătăți experiența utilizatorilor, sistemele și software-ul.

Dând clic pe ‘Sunt de acord’, permiteți utilizarea cookie-urilor menționate, a identificatorilor de dispozitiv, balizelor web sau altor tehnologii similare. Setările pot fi modificate din browser-ul dispozitivului dumneavoastră.

În anumite scopuri, interesele legitime pot prima asupra consimțământului. Puteți citi mai multe informații în acest sens în Politica privind Confidențialitatea Datelor și Cookie.